Regional Weather Roundup
Issued by NWS

Home | Current Version | Previous Version | Graphics & Text | Print | Product List | Glossary Off
Versions: 1 2 3 4 5 6 7 8 9 10 11 12 13 14 15 16 17 18 19 20 21 22 23 24 25 26 27 28 29 30 31 32 33 34 35 36 37 38 39 40 41 42 43 44 45 46 47 48 49 50

000
ASUS43 KTOP 302208
RWRKS

WEATHER ROUNDUP FOR KANSAS
NATIONAL WEATHER SERVICE GOODLAND KS
500 PM CDT TUE SEP 30 2014

NOTE:  "FAIR" INDICATES FEW OR NO CLOUDS BELOW 12,000 FEET WITH NO
SIGNIFICANT WEATHER AND/OR OBSTRUCTIONS TO VISIBILITY.

KSZ001>006-013>018-027>032-041>047-302300-
NORTHWEST KANSAS

CITY           SKY/WX    TMP DP  RH WIND       PRES   REMARKS
GOODLAND       SUNNY     73  41  31 S10       29.77S
HAYS           PTSUNNY   79  61  53 S3        29.70S
HILL CITY      SUNNY     80  55  42 E9        29.71F
RUSSELL        CLOUDY    78  65  63 SW5       29.69F
$$

KSZ061>065-074>080-084>089-302300-
SOUTHWEST KANSAS

CITY           SKY/WX    TMP DP  RH WIND       PRES   REMARKS
DODGE CITY     MOSUNNY   85  48  27 SW18      29.70F
GARDEN CITY    SUNNY     79  47  32 SW10      29.72F
GREAT BEND     MOSUNNY   82  59  44 S15G29    29.67F
LIBERAL        SUNNY     82  43  24 SW5       29.74S
PRATT          PTSUNNY   82  54  36 S23G29    29.70F
$$

KSZ066>073-081>083-090>101-302300-
SOUTHEAST KANSAS

CITY           SKY/WX    TMP DP  RH WIND       PRES   REMARKS
CHANUTE        MOSUNNY   82  62  50 S14       29.80S
COFFEYVILLE    MOSUNNY   84  63  49 SE15G22   29.79S
HUTCHINSON     PTSUNNY   85  56  37 S26G36    29.70F
MEDICINE LODGE   N/A     85  58  39 S21G30    29.67F
NEWTON         SUNNY     84  57  39 S18G29    29.75F
PARSONS        SUNNY     83  63  50 S14G20    29.80F
WICHITA INTL   MOSUNNY   85  58  39 S22       29.72F
WICHITA JABRA  PTSUNNY   83  59  44 S17       29.73F
WICHITA MCCONL MOSUNNY   84  58  40 S16G25    29.74F
WINFIELD       PTSUNNY   84  61  45 SE17G24   29.75F
$$

KSZ007>012-019>026-033>040-048>060-102>105-302300-
NORTHEAST KANSAS

CITY           SKY/WX    TMP DP  RH WIND       PRES   REMARKS
CONCORDIA      PTSUNNY   70  67  90 NE5       29.73F
EMPORIA        MOSUNNY   81  62  52 S17G24    29.77F
LAWRENCE       MOSUNNY   83  57  41 S16G24    29.77F
MANHATTAN      CLOUDY    83  61  47 S18       29.71F
MARYSVILLE     LGT RAIN  68  66  94 SE6       29.72F
OLATHE IND     SUNNY     82  57  42 S17G28    29.80F
OLATHE EXE     MOSUNNY   81  57  43 S14       29.80F
SALINA         LGT RAIN  81  62  52 S15       29.69F
TOPEKA BILLARD PTSUNNY   84  57  39 S13G22    29.76F
TOPEKA FORBES  LGT RAIN  82  57  42 S15       29.77S
$$



USA.gov is the U.S. government's official web portal to all federal, state and local government web resources and services.